Location: Forli
(44.2227°N, 12.0407°E)
Time: 13:22:40
(UTC+01:00)

ARIANE 6 FM1 Upper Stage - Pass Details

Date: 19 February 2026
Orbit: 523 x 607 km, 62.0° (Epoch: 8 March)

Event Time Altitude Azimuth Distance (km) Brightness Sun altitude
Rises 20:18:07 0° 298° (WNW) 2,658 7.3 -27.7°
Reaches altitude 10° 20:22:26 10° 253° (WSW) 1,771 5.9 -28.5°
Maximum altitude 20:22:50 10° 247° (WSW) 1,763 5.8 -28.6°
Drops below altitude 10° 20:23:13 10° 242° (WSW) 1,771 5.8 -28.6°
Enters shadow 20:25:49 - 210° (SSW) 2,170 5.8 -29.1°
